STARLINK-1999 (47594 NORAD) Tracking and Keplerian Element Data

This shows tracking and keplerian element data for the satellite.

Feedback or suggestion? Click here.




ElementValue
Catalog47594
NameSTARLINK-1999
Epoch Orbit176
Epoch Day59.91667824
Epoch Year2021
RAAN3.0066
Inclination53.0544
Eccentricity0.0001186
Argument of Perigee61.7882
Mean Anonmoly244.9468
Mean Motion15.57864795
Decay Rate-0.0094745
L11 47594U 21009AY 21059.91667824 -.00947450 00000-0 -13784-1 0 9996
L22 47594 53.0544 3.0066 0001186 61.7882 244.9468 15.57864795 1763

Live tracking and technical data element details for STARLINK-1999 (NORAD 47594). STARLINK-1999 can be tracked NOW for your location showing map with azimuth and elevation plus other details from your city location.

Track the satellite on the map from your city or location and see movement details for azimuth, elevation, latitude, longitude, range, height, and movement on the map or in text.







IsCatalogInMostPopularTable: catalog: 47594, numindb: 3
Update: records affected: 1



GetName: 47594 STARLINK-1999

Hit Count: updated at: Mon, 01 Mar 2021 16:02:06 GMT